Location: *
(58.4167°N, 22.5000°E)
Time: 21:43:40
(UTC+00:00)

Cosmos 1544 - Pass Details

Date: 22 September 2019
Orbit: 475 x 491 km, 82.5° (Epoch: 20 October)

Event Time Altitude Azimuth Distance (km) Brightness Sun altitude
Rises 17:36:19 0° 196° (SSW) 2,524 6.7 -9.3°
Reaches altitude 10° 17:38:23 10° 198° (SSW) 1,652 5.8 -9.6°
Maximum altitude 17:42:00 75° 284° (WNW) 505 3.3 -10.0°
Drops below altitude 10° 17:45:40 10° 11° (N) 1,674 5.9 -10.5°
Sets 17:47:47 0° 13° (NNE) 2,562 6.8 -10.8°
